Overview Statistics Trail Chart Weather Telemetry Raw packets
 

This is the latest recevied weather packets stored in our database for station/object I0UVN-10. If no packets are shown the sender has not sent any weather packets the latest 10 day(s).

<< 1 2 3 4 5 >>
Time Temp. Humidity Pressure Rain* Wind** Luminosity Snow
1788558029 27.78° C 46% 1022.9 hPa - - - -
1788556829 27.78° C 46% 1023 hPa - - - -
1788555629 28.33° C 47% 1023.1 hPa - - - -
1788554428 28.33° C 47% 1023.2 hPa - - - -
1788553228 28.33° C 46% 1023.2 hPa - - - -
1788552028 27.78° C 46% 1023.5 hPa - - - -
1788550828 27.78° C 46% 1023.4 hPa - - - -
1788549628 28.33° C 45% 1023.3 hPa - - - -
1788548428 28.33° C 44% 1023.3 hPa - - - -
1788547228 28.89° C 43% 1023.2 hPa - - - -
1788546028 28.89° C 43% 1022.8 hPa - - - -
1788544822 28.89° C 43% 1022.7 hPa - - - -
1788543621 28.89° C 43% 1022.4 hPa - - - -
1788542421 28.89° C 44% 1022.4 hPa - - - -
1788541275 29.44° C 44% 1022.4 hPa - - - -
1788541221 29.44° C 44% 1022.4 hPa - - - -
1788540021 29.44° C 44% 1022.4 hPa - - - -
1788538920 30° C 44% 1022.3 hPa - - - -
1788538821 30° C 44% 1022.3 hPa - - - -
1788537621 30° C 44% 1022.5 hPa - - - -
1788536421 30° C 45% 1022.4 hPa - - - -
1788535222 30° C 45% 1022.5 hPa - - - -
1788534020 30° C 45% 1022.5 hPa - - - -
1788532820 30° C 45% 1022.5 hPa - - - -
1788531620 30.56° C 45% 1022.6 hPa - - - -

* Rain since midnight (hover to see other rain measurements)
** Current wind speed in m/s (hover to see current wind gust speed)